• In Deutschland
  • Länderverzeichnis
  • Für 7 Tage
  • Wassertemperatur
  • Satellitenkarten
  • Wetterkarte
  • Widgets
  • user-avatar
    Anmelden

    Stündliche Wetter Kipungo

    Heute, 21 Oktober, Sonntag

    Zeit Temperatur Niederschläge Wind Luftdruck Luftfeuchtigkeit
    00:00 +25°C° 0.1 mm 2 m/S 653 mmHg 53%
    01:00 +24°C° 0.1 mm 2 m/S 653 mmHg 58%
    02:00 +24°C° 0.2 mm 2 m/S 653 mmHg 61%
    03:00 +24°C° 0.2 mm 2 m/S 653 mmHg 64%
    04:00 +23°C° 0.2 mm 2 m/S 653 mmHg 67%
    05:00 +24°C° 0.1 mm 1 m/S 653 mmHg 65%
    06:00 +24°C° 0.1 mm 1 m/S 653 mmHg 63%
    07:00 +25°C° 0.1 mm 1 m/S 654 mmHg 60%
    08:00 +28°C° 0 mm 1 m/S 654 mmHg 51%
    09:00 +30°C° 0 mm 1 m/S 655 mmHg 42%
    10:00 +33°C° 0 mm 1 m/S 655 mmHg 33%
    11:00 +34°C° 0 mm 1 m/S 655 mmHg 30%
    12:00 +36°C° 0 mm 2 m/S 655 mmHg 26%
    13:00 +37°C° 0 mm 2 m/S 654 mmHg 23%
    14:00 +35°C° 0.1 mm 2 m/S 654 mmHg 26%
    15:00 +34°C° 0.1 mm 2 m/S 653 mmHg 29%
    16:00 +31°C° 0.1 mm 2 m/S 652 mmHg 33%
    17:00 +30°C° 0.4 mm 2 m/S 653 mmHg 39%
    18:00 +28°C° 0.4 mm 2 m/S 653 mmHg 46%
    19:00 +26°C° 0.4 mm 2 m/S 653 mmHg 53%
    20:00 +25°C° 1.5 mm 2 m/S 653 mmHg 59%
    21:00 +25°C° 1.5 mm 2 m/S 654 mmHg 65%
    22:00 +24°C° 1.5 mm 2 m/S 654 mmHg 70%
    23:00 +23°C° 0.5 mm 2 m/S 654 mmHg 72%

    Morgen, 22 Oktober, Montag

    Zeit Temperatur Niederschläge Wind Luftdruck Luftfeuchtigkeit
    00:00 +23°C° 0.5 mm 2 m/S 654 mmHg 73%
    01:00 +23°C° 0.5 mm 1 m/S 653 mmHg 74%
    02:00 +23°C° 0.3 mm 1 m/S 653 mmHg 74%
    03:00 +23°C° 0.3 mm 1 m/S 653 mmHg 75%
    04:00 +22°C° 0.3 mm 1 m/S 652 mmHg 75%
    05:00 +23°C° 0.7 mm 1 m/S 653 mmHg 73%
    06:00 +23°C° 0.7 mm 1 m/S 653 mmHg 70%
    07:00 +23°C° 0.7 mm 2 m/S 653 mmHg 68%
    08:00 +25°C° 0.1 mm 2 m/S 654 mmHg 59%
    09:00 +28°C° 0.1 mm 2 m/S 654 mmHg 51%
    10:00 +30°C° 0.1 mm 3 m/S 655 mmHg 42%
    11:00 +31°C° 0 mm 2 m/S 655 mmHg 39%
    12:00 +32°C° 0 mm 2 m/S 654 mmHg 36%
    13:00 +33°C° 0 mm 1 m/S 654 mmHg 33%
    14:00 +32°C° 0.2 mm 2 m/S 653 mmHg 35%
    15:00 +31°C° 0.2 mm 2 m/S 653 mmHg 37%
    16:00 +31°C° 0.2 mm 2 m/S 652 mmHg 39%
    17:00 +29°C° 0.6 mm 3 m/S 652 mmHg 46%
    18:00 +27°C° 0.6 mm 3 m/S 652 mmHg 53%
    19:00 +25°C° 0.6 mm 3 m/S 653 mmHg 60%
    20:00 +25°C° 1 mm 3 m/S 653 mmHg 64%
    21:00 +24°C° 1 mm 3 m/S 654 mmHg 68%
    22:00 +24°C° 1 mm 3 m/S 654 mmHg 72%
    23:00 +22°C° 0.9 mm 3 m/S 654 mmHg 74%

    übermorgen, 23 Oktober, Dienstag

    Zeit Temperatur Niederschläge Wind Luftdruck Luftfeuchtigkeit
    00:00 +21°C° 0.9 mm 3 m/S 654 mmHg 76%
    01:00 +21°C° 0.9 mm 3 m/S 654 mmHg 78%
    02:00 +21°C° 0.5 mm 2 m/S 653 mmHg 79%
    03:00 +21°C° 0.5 mm 1 m/S 653 mmHg 80%
    04:00 +21°C° 0.5 mm 1 m/S 653 mmHg 81%
    05:00 +22°C° 0.1 mm 1 m/S 654 mmHg 79%
    06:00 +22°C° 0.1 mm 1 m/S 654 mmHg 78%
    07:00 +22°C° 0.1 mm 1 m/S 654 mmHg 77%
    08:00 +24°C° 0.2 mm 1 m/S 655 mmHg 67%
    09:00 +26°C° 0.2 mm 2 m/S 656 mmHg 58%
    10:00 +29°C° 0.2 mm 2 m/S 656 mmHg 48%
    11:00 +30°C° 0.2 mm 1 m/S 656 mmHg 44%
    12:00 +31°C° 0.2 mm 1 m/S 655 mmHg 40%
    13:00 +33°C° 0.2 mm 1 m/S 655 mmHg 36%
    14:00 +32°C° 0.1 mm 1 m/S 655 mmHg 38%
    15:00 +31°C° 0.1 mm 1 m/S 654 mmHg 40%
    16:00 +30°C° 0.1 mm 1 m/S 653 mmHg 42%
    17:00 +28°C° 0.7 mm 1 m/S 654 mmHg 49%
    18:00 +26°C° 0.7 mm 2 m/S 654 mmHg 56%
    19:00 +25°C° 0.7 mm 2 m/S 654 mmHg 63%
    20:00 +24°C° 0.4 mm 2 m/S 654 mmHg 66%
    21:00 +24°C° 0.4 mm 1 m/S 655 mmHg 69%
    22:00 +23°C° 0.4 mm 1 m/S 655 mmHg 72%
    23:00 +23°C° 0.2 mm 1 m/S 655 mmHg 74%

    24 Oktober, Mittwoch

    Zeit Temperatur Niederschläge Wind Luftdruck Luftfeuchtigkeit
    00:00 +23°C° 0.2 mm 1 m/S 654 mmHg 76%
    01:00 +22°C° 0.2 mm 1 m/S 654 mmHg 78%
    02:00 +22°C° 0.7 mm 1 m/S 654 mmHg 79%
    03:00 +22°C° 0.7 mm 1 m/S 654 mmHg 81%
    04:00 +21°C° 0.7 mm 1 m/S 654 mmHg 82%
    05:00 +22°C° 0.2 mm 1 m/S 654 mmHg 81%
    06:00 +20°C° 0.2 mm 0 m/S 654 mmHg 79%
    07:00 +20°C° 0.2 mm 0 m/S 655 mmHg 77%
    08:00 +24°C° 0.3 mm 1 m/S 655 mmHg 69%
    09:00 +25°C° 0.3 mm 1 m/S 655 mmHg 61%
    10:00 +27°C° 0.3 mm 1 m/S 656 mmHg 53%
    11:00 +29°C° 0.1 mm 1 m/S 655 mmHg 47%
    12:00 +30°C° 0.1 mm 1 m/S 655 mmHg 41%
    13:00 +32°C° 0.1 mm 1 m/S 655 mmHg 35%
    14:00 +31°C° 0.1 mm 2 m/S 654 mmHg 37%
    15:00 +30°C° 0.1 mm 2 m/S 653 mmHg 39%
    16:00 +29°C° 0.1 mm 2 m/S 653 mmHg 41%
    17:00 +28°C° 0.1 mm 2 m/S 653 mmHg 45%
    18:00 +27°C° 0.1 mm 2 m/S 654 mmHg 49%
    19:00 +26°C° 0.1 mm 1 m/S 654 mmHg 54%
    20:00 +25°C° 0.7 mm 1 m/S 654 mmHg 59%
    21:00 +24°C° 0.7 mm 1 m/S 654 mmHg 64%
    22:00 +23°C° 0.7 mm 1 m/S 654 mmHg 68%
    23:00 +23°C° 0.3 mm 1 m/S 654 mmHg 71%

    25 Oktober, Donnerstag

    Zeit Temperatur Niederschläge Wind Luftdruck Luftfeuchtigkeit
    00:00 +22°C° 0.3 mm 1 m/S 654 mmHg 73%
    01:00 +22°C° 0.3 mm 1 m/S 653 mmHg 76%
    02:00 +21°C° 0.4 mm 1 m/S 653 mmHg 79%
    03:00 +21°C° 0.4 mm 1 m/S 653 mmHg 81%
    04:00 +20°C° 0.4 mm 1 m/S 652 mmHg 84%
    05:00 +20°C° 0.9 mm 2 m/S 653 mmHg 83%
    06:00 +20°C° 0.9 mm 2 m/S 653 mmHg 82%
    07:00 +20°C° 0.9 mm 2 m/S 654 mmHg 81%
    08:00 +22°C° 0.5 mm 3 m/S 654 mmHg 73%
    09:00 +25°C° 0.5 mm 3 m/S 655 mmHg 65%
    10:00 +27°C° 0.5 mm 3 m/S 655 mmHg 57%
    11:00 +28°C° 0.7 mm 3 m/S 655 mmHg 52%
    12:00 +29°C° 0.7 mm 3 m/S 654 mmHg 48%
    13:00 +30°C° 0.7 mm 3 m/S 654 mmHg 44%
    14:00 +29°C° 0.2 mm 2 m/S 654 mmHg 45%
    15:00 +29°C° 0.2 mm 2 m/S 654 mmHg 47%
    16:00 +28°C° 0.2 mm 2 m/S 653 mmHg 48%
    17:00 +27°C° 1.2 mm 2 m/S 654 mmHg 55%
    18:00 +25°C° 1.2 mm 2 m/S 654 mmHg 63%
    19:00 +24°C° 1.2 mm 2 m/S 654 mmHg 70%
    20:00 +23°C° 0.9 mm 2 m/S 654 mmHg 72%
    21:00 +23°C° 0.9 mm 1 m/S 655 mmHg 75%
    22:00 +22°C° 0.9 mm 1 m/S 655 mmHg 78%
    23:00 +22°C° 0 mm 1 m/S 654 mmHg 78%

    26 Oktober, Freitag

    Zeit Temperatur Niederschläge Wind Luftdruck Luftfeuchtigkeit
    00:00 +22°C° 0 mm 1 m/S 654 mmHg 79%
    01:00 +20°C° 0 mm 2 m/S 654 mmHg 80%
    02:00 +20°C° 0 mm 2 m/S 653 mmHg 81%
    03:00 +21°C° 0 mm 1 m/S 653 mmHg 82%
    04:00 +20°C° 0 mm 1 m/S 653 mmHg 83%
    05:00 +20°C° 0 mm 2 m/S 653 mmHg 79%
    06:00 +20°C° 0 mm 2 m/S 654 mmHg 76%
    07:00 +21°C° 0 mm 2 m/S 654 mmHg 72%
    08:00 +25°C° 0 mm 3 m/S 655 mmHg 62%
    09:00 +27°C° 0 mm 3 m/S 655 mmHg 51%
    10:00 +30°C° 0 mm 3 m/S 656 mmHg 40%
    11:00 +30°C° 0 mm 3 m/S 655 mmHg 38%
    12:00 +31°C° 0 mm 3 m/S 655 mmHg 35%
    13:00 +33°C° 0 mm 3 m/S 655 mmHg 32%
    14:00 +31°C° 0.1 mm 2 m/S 654 mmHg 35%
    15:00 +30°C° 0.1 mm 2 m/S 654 mmHg 38%
    16:00 +29°C° 0.1 mm 2 m/S 654 mmHg 41%
    17:00 +28°C° 0 mm 1 m/S 654 mmHg 44%
    18:00 +27°C° 0 mm 1 m/S 654 mmHg 47%
    19:00 +26°C° 0 mm 1 m/S 654 mmHg 49%
    20:00 +25°C° 0.1 mm 1 m/S 655 mmHg 52%
    21:00 +24°C° 0.1 mm 1 m/S 655 mmHg 55%
    22:00 +23°C° 0.1 mm 1 m/S 655 mmHg 58%
    23:00 +23°C° 0.1 mm 1 m/S 655 mmHg 61%
    Mehr zeigen